STARLINK-11385, 62014

Orbit data source: Space-Track

STARLINK-11385, 62014 is a payload satellite owned by SpaceX/Seattle (US) in LEO that was launched on Mon, 18 Nov 2024 UTC via an FALCON 9 launch vehicle from the Air Force Western Test Range (AFWTR). Payload-class satellites include a variety of spacecraft equipped with specific instruments for various scientific and technological missions. These include communications satellites like Starlink; space stations such as the ISS; scientific satellites like the Hubble; Earth observation satellites from companies like Planet Labs, Umbra, and HawkEye 360; GPS; miniature CubeSats for education and research; and military/defense satellites.

Loading next visibility...
Identifier
62014, 2024-213G
Orbit
LEO
Last TLE update
6 hours ago
Origin
Manufacturer
SpaceX/Seattle
Mission
Operational Commercial Communications
Bus & Motor
STARLINK V2M, Unknown motor
Mass
730 kg wet, ~700 kg dry
Launch date (UTC)
2024-11-18 (8 months ago)
Launch vehicle
FALCON 9
Launch site
Air Force Western Test Range (AFWTR)
Object type
Payload
Rocket body
Debris
Shape & HBR
Box + 2 Pan, 14.5 m
Radar Cross Section
36.964 m², Large (>1 m²)

Expand to show TLE details & history

TLE from 6 hours ago
0 STARLINK-11385
1 62014U 24213G   25199.20039645  .00104015  00000-0  85144-3 0  9996
2 62014  53.1572 117.3824 0001144  94.4258 265.6891 15.69745029 39081
Epoch: 2025-07-18T04:48Z
TLE epoch observation values (Epoch: 2025-07-18T04:48:34.253Z)
Latitude
0.00002°
Longitude
108.98443°
Altitude
360.599 km
Speed
7.694 km/s
True Right ascension
07h 49m 31s
True Declination
0° 00' 00"
Sunlit
Object was in daylight at epoch
Visualization orbit readout
Latitude
34.91118°
Longitude
139.0194°
Altitude
361.539 km
Speed
7.697 km/s
Apparent Right ascension
10h 47m 13s
Apparent Declination
-1° 19' 60"
Sunlit
Object is in daylight
Visualization observer readout
Local Sidereal Time
23:52:25
Azimuth
25.143° NE
Elevation
-48.667°
Doppler factor
1
Orbital elements
Apogee altitude
360.658 km
Perigee altitude
359.117 km
Semi-major axis
6,738.025 km
Eccentricity
0.00011
Inclination
53.1572°
RAAN
117.3824°
Arg. of periapsis
94.4258°
True anomaly
265.67603°
Mean anomaly
265.6891°
Eccentric anomaly
265.68256°
Mean motion
3.92414 °/min
Orbital period
91.74 mins
BSTAR
0.00085144
Loading maneuver chart data...
Loading SW <> Apogee altitude chart data...
Loading historical data...
Loading historical data...
Loading historical data...
Loading historical data...
Loading historical data...
Loading historical data...
Loading historical data...
|